Weather History for KEAR - March, 2013

Change the Weather History Date:

Thursday, March 7, 2013

  Actual Average Record
Temperature  
Mean Temperature 39 °F 34 °F  
Max Temperature 52 °F 47 °F 71 °F (2000)
Min Temperature 25 °F 22 °F -13 °F (1943)
Degree Days  
Heating Degree Days 26 31  
Month to date heating degree days 222  
Since 1 July heating degree days 5148  
Cooling Degree Days 0 0  
Month to date cooling degree days 0  
Year to date cooling degree days 0  
Moisture  
Dew Point 25 °F    
Average Humidity 63    
Maximum Humidity 88    
Minimum Humidity 38    
Precipitation  
Precipitation 0.00 in - 1.48 in (1990)
Sea Level Pressure  
Sea Level Pressure 30.04 in    
Wind  
Wind Speed 11 mph (ESE)    
Max Wind Speed 18 mph    
Max Gust Speed 20 mph    
Visibility 10 miles    
Events      
T = Trace of Precipitation, MM = Missing Value Source: NWS Daily Summary

Daily Weather History Graph

Daily Weather History Graph

Search for Another Location

Airport or City:

Trip Planner

Search our weather history database for the weather conditions in past years. The results will help you decide how hot, cold, wet, or windy it might be!

Date:

Astronomy

Mar. 07, 2013 Rise Set
Actual Time 7:00 AM CST 6:34 PM CST
Civil Twilight 6:32 AM CST 7:01 PM CST
Nautical Twilight 6:01 AM CST 7:33 PM CST
Astronomical Twilight 5:29 AM CST 8:05 PM CST
Moon 4:02 AM CST (3/7) 2:22 PM CST (3/7)
Length of Visible Light 12h 28m
Length of Day
11h 34m
Waning Crescent, 20% of the Moon is Illuminated
Mar 7
Waning Crescent
Mar 11
New
Mar 19
First Quarter
Mar 27
Full
Apr 2
Last Quarter

Hourly Weather History & Observations

Time (CST) Temp. Windchill Dew Point Humidity Pressure Visibility Wind Dir Wind Speed Gust Speed Precip Events Conditions
12:15 AM 28.4 °F 18.0 °F 21.2 °F 74% 30.05 in 10.0 mi SE 12.7 mph - N/A   Clear
12:35 AM 28.4 °F 18.5 °F 21.2 °F 74% 30.06 in 10.0 mi SE 11.5 mph - N/A   Clear
12:55 AM 28.4 °F 18.0 °F 23.0 °F 80% 30.05 in 10.0 mi SE 12.7 mph - N/A   Clear
1:15 AM 28.4 °F 18.0 °F 21.2 °F 74% 30.06 in 10.0 mi SE 12.7 mph - N/A   Clear
1:35 AM 28.4 °F 18.0 °F 23.0 °F 80% 30.05 in 10.0 mi SE 12.7 mph - N/A   Clear
1:55 AM 28.4 °F 17.5 °F 21.2 °F 74% 30.06 in 10.0 mi SE 13.8 mph - N/A   Clear
2:15 AM 28.4 °F 17.0 °F 23.0 °F 80% 30.05 in 10.0 mi SE 15.0 mph - N/A   Clear
2:35 AM 28.4 °F 18.0 °F 21.2 °F 74% 30.05 in 10.0 mi SE 12.7 mph - N/A   Clear
2:55 AM 26.6 °F 15.7 °F 23.0 °F 86% 30.04 in 10.0 mi SE 12.7 mph - N/A   Clear
3:15 AM 26.6 °F 15.7 °F 21.2 °F 80% 30.03 in 10.0 mi SE 12.7 mph - N/A   Clear
3:35 AM 26.6 °F 16.8 °F 21.2 °F 80% 30.03 in 10.0 mi SE 10.4 mph - N/A   Clear
3:55 AM 26.6 °F 15.7 °F 21.2 °F 80% 30.03 in 10.0 mi SE 12.7 mph - N/A   Clear
4:15 AM 26.6 °F 16.2 °F 21.2 °F 80% 30.03 in 10.0 mi ESE 11.5 mph - N/A   Clear
4:35 AM 26.6 °F 16.8 °F 21.2 °F 80% 30.03 in 10.0 mi ESE 10.4 mph - N/A   Clear
4:55 AM 24.8 °F 14.0 °F 21.2 °F 86% 30.03 in 10.0 mi SE 11.5 mph - N/A   Clear
5:15 AM 24.8 °F 13.4 °F 21.2 °F 86% 30.04 in 10.0 mi ESE 12.7 mph - N/A   Clear
5:35 AM 24.8 °F 14.6 °F 21.2 °F 86% 30.05 in 10.0 mi ESE 10.4 mph - N/A   Clear
5:55 AM 24.8 °F 15.3 °F 21.2 °F 86% 30.05 in 10.0 mi ESE 9.2 mph - N/A   Clear
6:15 AM 24.8 °F 15.3 °F 21.2 °F 86% 30.05 in 9.0 mi ESE 9.2 mph - N/A   Clear
6:35 AM 24.8 °F 13.4 °F 21.2 °F 86% 30.05 in 9.0 mi ESE 12.7 mph - N/A   Clear
6:55 AM 24.8 °F 13.4 °F 21.2 °F 86% 30.05 in 7.0 mi ESE 12.7 mph - N/A   Clear
7:15 AM 24.8 °F 16.1 °F 21.2 °F 86% 30.06 in 6.0 mi ESE 8.1 mph - N/A   Clear
7:35 AM 24.8 °F 14.6 °F 21.2 °F 86% 30.07 in 6.0 mi ESE 10.4 mph - N/A   Clear
7:55 AM 26.6 °F 16.2 °F 23.0 °F 86% 30.07 in 6.0 mi ESE 11.5 mph - N/A   Clear
8:15 AM 26.6 °F 16.2 °F 24.8 °F 93% 30.07 in 5.0 mi ESE 11.5 mph - N/A   Clear
8:35 AM 28.4 °F 18.5 °F 23.0 °F 80% 30.08 in 7.0 mi ESE 11.5 mph - N/A   Clear
8:55 AM 28.4 °F 18.5 °F 24.8 °F 86% 30.08 in 8.0 mi ESE 11.5 mph - N/A   Clear
9:15 AM 30.2 °F 19.3 °F 24.8 °F 80% 30.08 in 8.0 mi SE 15.0 mph - N/A   Clear
9:35 AM 32.0 °F 20.8 °F 24.8 °F 75% 30.07 in 10.0 mi ESE 17.3 mph - N/A   Clear
9:55 AM 33.8 °F 22.8 °F 24.8 °F 70% 30.06 in 10.0 mi SE 18.4 mph - N/A   Clear
10:15 AM 35.6 °F 25.2 °F 24.8 °F 65% 30.05 in 10.0 mi SE 18.4 mph - N/A   Clear
10:35 AM 35.6 °F 25.9 °F 24.8 °F 65% 30.05 in 10.0 mi SE 16.1 mph 21.9 mph N/A   Clear
10:55 AM 37.4 °F 27.8 °F 24.8 °F 60% 30.05 in 10.0 mi ESE 17.3 mph - N/A   Clear
11:15 AM 39.2 °F 30.5 °F 24.8 °F 56% 30.05 in 10.0 mi SE 16.1 mph - N/A   Clear
11:35 AM 39.2 °F 31.2 °F 24.8 °F 56% 30.05 in 10.0 mi SE 13.8 mph 18.4 mph N/A   Clear
11:55 AM 41.0 °F 33.1 °F 24.8 °F 53% 30.05 in 10.0 mi SE 15.0 mph 19.6 mph N/A   Clear
12:15 PM 42.8 °F 36.2 °F 26.6 °F 53% 30.05 in 10.0 mi SE 12.7 mph - N/A   Clear
12:35 PM 42.8 °F 36.6 °F 24.8 °F 49% 30.05 in 10.0 mi SSE 11.5 mph - N/A   Clear
12:55 PM 44.6 °F 38.8 °F 26.6 °F 49% 30.04 in 10.0 mi SSE 11.5 mph - N/A   Clear
1:15 PM 46.4 °F 40.7 °F 26.6 °F 46% 30.03 in 10.0 mi SE 12.7 mph - N/A   Clear
1:35 PM 46.4 °F 40.4 °F 26.6 °F 46% 30.03 in 10.0 mi SE 13.8 mph 17.3 mph N/A   Clear
1:55 PM 46.4 °F 40.4 °F 26.6 °F 46% 30.02 in 10.0 mi SE 13.8 mph 18.4 mph N/A   Clear
2:15 PM 48.2 °F - 26.6 °F 43% 30.02 in 10.0 mi SSE 11.5 mph - N/A   Clear
2:35 PM 48.2 °F - 28.4 °F 46% 30.01 in 10.0 mi SE 13.8 mph 19.6 mph N/A   Clear
2:55 PM 50.0 °F - 26.6 °F 40% 30.01 in 10.0 mi SE 15.0 mph - N/A   Clear
3:15 PM 51.8 °F - 26.6 °F 38% 30.01 in 10.0 mi SE 12.7 mph 17.3 mph N/A   Clear
3:35 PM 51.8 °F - 26.6 °F 38% 30.01 in 10.0 mi SE 18.4 mph - N/A   Clear
3:55 PM 51.8 °F - 26.6 °F 38% 30.00 in 10.0 mi SSE 15.0 mph - N/A   Clear
4:15 PM 50.0 °F - 26.6 °F 40% 30.00 in 10.0 mi SSE 12.7 mph - N/A   Clear
4:35 PM 50.0 °F - 28.4 °F 43% 30.00 in 10.0 mi SE 11.5 mph - N/A   Clear
4:55 PM 51.8 °F - 28.4 °F 41% 30.00 in 10.0 mi SSE 11.5 mph - N/A   Clear
5:15 PM 51.8 °F - 28.4 °F 41% 30.00 in 10.0 mi SSE 10.4 mph - N/A   Clear
5:35 PM 50.0 °F - 28.4 °F 43% 30.01 in 10.0 mi SE 8.1 mph - N/A   Clear
5:55 PM 48.2 °F - 28.4 °F 46% 30.01 in 10.0 mi SE 6.9 mph - N/A   Clear
6:15 PM 46.4 °F 43.5 °F 28.4 °F 50% 30.01 in 10.0 mi SE 5.8 mph - N/A   Clear
6:35 PM 44.6 °F 42.2 °F 28.4 °F 53% 30.02 in 9.0 mi ESE 4.6 mph - N/A   Clear
6:55 PM 42.8 °F - 28.4 °F 57% 30.03 in 10.0 mi Calm Calm - N/A   Clear
7:15 PM 39.2 °F 35.9 °F 28.4 °F 65% 30.03 in 10.0 mi East 4.6 mph - N/A   Clear
7:35 PM 37.4 °F 32.8 °F 28.4 °F 70% 30.04 in 8.0 mi ENE 5.8 mph - N/A   Clear
7:55 PM 37.4 °F 32.1 °F 28.4 °F 70% 30.05 in 10.0 mi NNE 6.9 mph - N/A   Clear
8:15 PM 37.4 °F 34.9 °F 28.4 °F 70% 30.05 in 10.0 mi North 3.5 mph - N/A   Clear
8:35 PM 37.4 °F 34.9 °F 28.4 °F 70% 30.05 in 10.0 mi North 3.5 mph - N/A   Clear
8:55 PM 37.4 °F 33.8 °F 26.6 °F 65% 30.05 in 10.0 mi NNE 4.6 mph - N/A   Clear
9:15 PM 35.6 °F 31.7 °F 26.6 °F 70% 30.05 in 10.0 mi North 4.6 mph - N/A   Clear
9:35 PM 33.8 °F 29.6 °F 26.6 °F 75% 30.05 in 10.0 mi North 4.6 mph - N/A   Clear
9:55 PM 35.6 °F 31.7 °F 28.4 °F 75% 30.05 in 10.0 mi North 4.6 mph - N/A   Clear
10:15 PM 33.8 °F 27.7 °F 26.6 °F 75% 30.06 in 10.0 mi NE 6.9 mph - N/A   Clear
10:35 PM 33.8 °F 27.7 °F 26.6 °F 75% 30.06 in 10.0 mi NE 6.9 mph - N/A   Clear
10:55 PM 32.0 °F 25.6 °F 26.6 °F 80% 30.06 in 10.0 mi ENE 6.9 mph - N/A   Clear
11:15 PM 32.0 °F 24.8 °F 26.6 °F 80% 30.07 in 10.0 mi East 8.1 mph - N/A   Clear
11:35 PM 33.8 °F 28.6 °F 28.4 °F 81% 30.07 in 10.0 mi East 5.8 mph - N/A   Clear
11:55 PM 32.0 °F 27.5 °F 28.4 °F 87% 30.07 in 10.0 mi East 4.6 mph - N/A   Clear